1502114400.67,65052,21.5,74380.3,13.89,2.81,1.17,0,*46
1502114401.93,65053,21.5,74380.0,13.91,2.69,1.17,0,*48
1502114403.14,65054,21.5,74376.0,13.93,4.15,2.73,0,*41
1502114404.4,65055,21.5,74378.0,13.95,4.67,3.15,0,*42
1502114405.6,65056,21.5,74380.5,13.97,4.81,3.11,0,*4F
1502114406.86,65057,21.5,74382.8,13.99,5.05,3.19,0,*45
1502114408.1,65058,21.5,74380.3,14.03,5.55,3.71,0,*45
1502114409.3,65059,21.5,74382.3,14.11,5.99,4.27,0,*43
1502114410.5,65060,21.5,74378.3,14.15,5.99,4.19,0,*40
1502114411.71,65061,21.5,74380.8,14.19,5.63,3.89,0,*46
1502114412.92,65062,21.5,74378.3,14.21,5.71,4.07,0,*4C
1502114414.12,65063,21.5,74382.5,14.23,5.45,4.01,0,*4E
1502114415.33,65064,21.5,74382.3,14.27,4.75,3.25,0,*4E
1502114416.56,65065,21.5,74382.8,14.33,5.41,4.05,0,*49
1502114417.77,65066,21.5,74382.0,14.37,5.95,4.85,0,*4F
1502114419.04,65067,21.5,74384.0,14.37,6.13,5.27,0,*4A
1502114420.25,65068,21.5,74380.0,14.43,6.91,6.21,0,*49
1502114421.45,65069,21.5,74380.3,14.49,6.75,5.95,0,*44
1502114422.69,65070,21.5,74380.3,14.49,6.21,5.51,0,*45
1502114423.9,65071,21.5,74382.5,14.55,5.99,5.41,0,*48
1502114425.15,65072,21.5,74382.3,14.55,5.85,5.27,0,*46
1502114426.37,65073,21.5,74378.0,14.59,6.33,5.63,0,*45
1502114427.59,65074,21.5,74376.0,14.61,6.21,5.51,0,*4B
1502114428.82,65075,21.5,74380.0,14.63,6.57,5.99,0,*4D
1502114430.03,65076,21.5,74382.8,14.63,7.55,6.97,0,*40
1502114431.27,65077,21.5,74382.5,14.67,7.09,6.35,0,*44
1502114432.49,65078,21.5,74380.3,14.69,7.19,6.61,0,*45
1502114433.72,65079,21.5,74376.0,14.71,7.73,7.05,0,*42
1502114434.93,65080,21.5,74378.8,14.77,7.29,6.69,0,*46
1502114436.12,65081,21.5,74378.3,14.77,7.37,6.73,0,*43
1502114437.35,65082,21.5,74380.5,14.77,7.87,7.27,0,*4B
1502114438.59,65083,21.5,74380.3,14.81,8.33,7.77,0,*46
1502114439.85,65084,21.5,74376.3,14.87,8.51,7.83,0,*48
1502114441.05,65085,21.5,74382.0,14.89,7.73,6.97,0,*4C
1502114442.25,65086,21.5,74378.8,14.89,7.33,6.61,0,*42
1502114443.46,65087,21.5,74378.8,14.89,6.75,5.93,0,*4E
1502114444.69,65088,21.5,74380.8,14.91,6.91,6.07,0,*4C
1502114445.92,65089,21.5,74380.3,14.93,6.69,5.73,0,*48
1502114447.14,65090,21.5,74378.8,14.93,5.95,5.01,0,*45
1502114448.32,65091,21.5,74380.0,14.93,5.49,4.45,0,*44
1502114449.5,65092,21.5,74382.0,14.93,4.45,3.25,0,*4B
1502114450.73,65093,21.5,74380.8,14.91,5.07,3.75,0,*4A
1502114451.92,65094,21.5,74376.0,14.93,5.19,3.89,0,*43
1502114453.15,65095,21.5,74382.3,14.91,5.19,3.79,0,*4F
1502114454.38,65096,21.5,74380.8,14.91,4.23,2.77,0,*4B
1502114455.63,65097,21.5,74382.3,14.91,5.27,3.79,0,*40
1502114456.89,65098,21.5,74380.3,14.91,3.75,2.25,0,*46
1502114458.1,65099,21.5,74382.5,14.89,2.65,1.37,0,*4E
1502114459.36,65100,21.5,74380.0,14.87,2.59,1.55,0,*4A
1502114460.58,65101,21.5,74382.0,14.85,2.73,1.93,0,*4B
1502114461.84,65102,21.5,74384.3,14.83,3.03,2.21,0,*42
1502114463.07,65103,21.5,74386.0,14.83,3.29,2.47,0,*4B
1502114464.32,65104,21.5,74380.3,14.83,2.69,2.01,0,*4B
1502114465.55,65105,21.5,74384.0,14.79,3.15,2.31,0,*46
1502114466.78,65106,21.5,74384.3,14.79,2.43,1.79,0,*48
1502114468.03,65107,21.5,74382.5,14.79,2.09,1.55,0,*49
1502114469.22,65108,21.5,74382.5,14.77,2.95,2.61,0,*49
1502114470.4,65109,21.5,74382.3,14.77,5.29,5.29,0,*43
1502114471.63,65110,21.5,74380.3,14.77,5.81,5.81,0,*4B
1502114472.81,65111,21.5,74382.8,14.81,5.59,5.67,0,*4E
1502114474.04,65112,21.5,74382.3,14.79,5.15,5.27,0,*46
1502114475.23,65113,21.5,74382.3,14.81,5.59,5.67,0,*4C
1502114476.43,65114,21.5,74382.3,14.79,5.71,5.71,0,*41
1502114477.62,65115,21.5,74380.8,14.81,5.15,5.23,0,*42
1502114478.83,65116,21.5,74380.0,14.81,4.15,4.05,0,*45
1502114480.03,65117,21.5,74380.8,14.81,5.55,5.49,0,*48
1502114481.26,65118,21.5,74380.0,14.79,5.05,4.89,0,*48
1502114482.47,65119,21.5,74376.3,14.81,5.15,4.93,0,*44
1502114483.68,65120,21.5,74378.5,14.79,5.67,5.45,0,*46
1502114484.93,65121,21.5,74380.0,14.79,5.85,5.55,0,*4A
1502114486.11,65122,21.5,74378.8,14.81,5.45,5.11,0,*42
1502114487.32,65123,21.5,74382.0,14.79,5.67,5.33,0,*44
1502114488.52,65124,21.5,74378.8,14.77,7.01,6.61,0,*4B
1502114489.74,65125,21.5,74378.3,14.79,7.09,6.73,0,*4F
1502114491.0,65126,21.5,74376.3,14.83,7.19,6.87,0,*43
1502114492.22,65127,21.5,74378.8,14.83,5.77,5.37,0,*40
1502114493.45,65128,21.5,74378.0,14.83,5.73,5.29,0,*44
1502114494.66,65129,21.5,74376.8,14.83,5.95,5.59,0,*4A
1502114495.89,65130,21.5,74378.8,14.81,6.87,6.51,0,*4B
1502114497.14,65131,21.5,74380.3,14.83,7.11,6.69,0,*4D
1502114498.37,65132,21.5,74382.0,14.83,7.09,6.69,0,*47
1502114499.59,65133,21.5,74376.3,14.85,7.19,6.69,0,*41
1502114500.84,65134,21.5,74376.8,14.87,7.15,6.61,0,*40
1502114502.02,65135,21.5,74378.8,14.89,6.83,6.29,0,*4D
1502114503.25,65136,21.5,74376.8,14.89,7.19,6.73,0,*43
1502114504.48,65137,21.5,74378.3,14.91,7.09,6.51,0,*4A
1502114505.74,65138,21.5,74376.5,14.91,6.39,5.73,0,*44
1502114506.95,65139,21.5,74380.0,14.93,5.73,5.15,0,*4A
1502114508.16,65140,21.5,74380.5,14.91,6.07,5.49,0,*4F
1502114509.38,65141,21.5,74378.0,14.93,6.53,5.89,0,*41
1502114510.59,65142,21.5,74378.3,14.93,6.69,6.11,0,*49
1502114511.83,65143,21.5,74378.0,14.93,7.11,6.51,0,*42
1502114513.08,65144,21.5,74378.3,14.95,7.11,6.53,0,*41
1502114514.31,65145,21.5,74380.3,14.99,7.61,7.09,0,*45
1502114515.53,65146,21.5,74382.0,14.99,7.41,6.73,0,*48
1502114516.77,65147,21.56,74384.5,15.01,7.19,6.51,0,*44
1502114517.97,65148,21.5,74380.8,15.03,8.09,7.45,0,*43
1502114519.19,65149,21.5,74382.3,15.09,8.19,7.61,0,*4F
1502114520.42,65150,21.5,74378.8,15.11,5.59,4.93,0,*49
1502114521.64,65151,21.5,74378.3,15.09,5.67,5.01,0,*46
1502114522.87,65152,21.5,74380.8,15.11,4.93,4.53,0,*40
1502114524.11,65153,21.5,74380.0,15.09,4.31,3.71,0,*47
1502114525.31,65154,21.5,74380.5,15.09,3.97,3.55,0,*4D
1502114526.51,65155,21.5,74382.3,15.07,4.15,3.55,0,*4F
1502114527.77,65156,21.56,74382.3,15.07,3.67,3.11,0,*4E
1502114529.01,65157,21.5,74380.0,15.05,3.07,2.55,0,*4A
1502114530.22,65158,21.5,74378.3,15.01,3.75,3.25,0,*42
1502114531.46,65159,21.5,74376.5,15.03,3.89,3.37,0,*41
1502114532.67,65160,21.5,74378.5,15.01,3.85,3.33,0,*41
1502114533.91,65161,21.5,74376.5,14.95,4.53,4.01,0,*46
1502114535.16,65162,21.5,74378.8,14.99,5.77,5.27,0,*4B
1502114536.39,65163,21.56,74382.0,14.99,5.95,5.55,0,*43
1502114537.58,65164,21.5,74378.5,15.01,4.89,4.45,0,*48
1502114538.79,65165,21.56,74380.3,15.01,5.33,4.97,0,*46
1502114540.0,65166,21.5,74376.5,15.01,5.95,5.55,0,*46
1502114541.21,65167,21.5,74376.3,15.01,5.15,4.67,0,*4F
1502114542.45,65168,21.5,74378.5,15.03,5.37,5.01,0,*43
1502114543.63,65169,21.5,74376.0,15.01,4.89,4.45,0,*45
1502114544.85,65170,21.5,74378.5,15.01,4.15,3.75,0,*4C
1502114546.03,65171,21.5,74378.3,15.01,4.85,4.41,0,*44
1502114547.24,65172,21.5,74376.5,15.01,5.23,4.67,0,*4E
1502114548.45,65173,21.56,74380.5,14.99,4.89,4.41,0,*4A
1502114549.71,65174,21.5,74378.0,14.99,4.79,4.31,0,*45
1502114550.92,65175,21.5,74376.3,14.99,5.07,4.53,0,*48
1502114552.15,65176,21.5,74376.5,14.95,5.45,4.93,0,*4D
1502114553.41,65177,21.5,74376.5,14.95,6.47,5.89,0,*47
1502114554.63,65178,21.56,74382.0,14.95,6.03,5.45,0,*48
1502114555.83,65179,21.5,74380.3,14.99,5.49,4.89,0,*49
1502114557.04,65180,21.5,74378.8,14.99,5.33,4.57,0,*41
1502114558.25,65181,21.5,74378.8,14.95,5.07,4.37,0,*4D
1502114559.48,65182,21.5,74378.5,14.99,5.45,4.79,0,*4E
1502114560.74,65183,21.5,74376.8,14.95,5.73,5.05,0,*4C
1502114561.94,65184,21.56,74380.5,14.95,5.11,4.49,0,*46
1502114563.17,65185,21.5,74376.3,14.95,5.51,4.81,0,*47
1502114564.41,65186,21.5,74376.3,14.95,5.67,4.93,0,*42
1502114565.64,65187,21.56,74378.8,14.95,5.41,4.59,0,*41
1502114566.85,65188,21.5,74378.5,14.93,4.89,4.01,0,*40
1502114568.06,65189,21.56,74378.8,14.93,4.89,3.97,0,*49
1502114569.27,65190,21.56,74378.5,14.91,5.27,4.19,0,*47
1502114570.45,65191,21.5,74378.5,14.93,5.37,4.49,0,*40
1502114571.68,65192,21.56,74378.5,14.91,5.63,4.67,0,*4C
1502114572.89,65193,21.56,74382.3,14.93,5.73,4.81,0,*46
1502114574.1,65194,21.5,74380.0,14.91,5.19,4.33,0,*46
1502114575.31,65195,21.56,74378.5,14.91,5.37,4.45,0,*4A
1502114576.51,65196,21.56,74382.0,14.93,5.05,4.19,0,*43
1502114577.75,65197,21.5,74378.8,14.91,3.67,2.91,0,*44
1502114578.95,65198,21.5,74380.5,14.93,3.85,2.85,0,*40
1502114580.16,65199,21.5,74376.3,14.91,4.11,3.25,0,*42
1502114581.37,65200,21.5,74378.5,14.89,4.05,2.99,0,*4B
1502114582.63,65201,21.56,74382.3,14.87,2.01,0.83,0,*7F
1502114583.83,65202,21.56,74382.5,14.85,1.75,0.41,0,*70
1502114585.07,65203,21.5,74380.8,14.83,-0.23,-1.71,0,*77
1502114586.32,65204,21.5,74380.5,14.75,-1.17,-2.55,0,*4A
1502114587.54,65205,21.56,74382.0,14.69,-0.61,-2.07,0,*71
1502114588.72,65206,21.56,74382.8,14.65,0.43,-0.93,0,*6C
1502114589.94,65207,21.56,74382.8,14.61,-0.57,-1.83,0,*71
1502114591.16,65208,21.56,74384.5,14.57,-1.91,-3.03,0,*4A
1502114592.35,65209,21.56,74384.8,14.53,-3.19,-4.45,0,*48
1502114593.57,65210,21.56,74384.0,14.45,-2.87,-3.91,0,*4F
1502114594.78,65211,21.56,74386.5,14.39,-2.87,-4.01,0,*4B
1502114596.03,65212,21.5,74380.0,14.37,-2.03,-2.99,0,*4D
1502114597.26,65213,21.56,74384.8,14.31,-2.07,-3.07,0,*48
1502114598.5,65214,21.56,74386.3,14.25,-2.51,-3.39,0,*44
1502114599.78,65215,21.56,74384.0,14.21,-1.83,-2.75,0,*44
1502114600.99,65216,21.56,74382.0,14.17,-1.35,-2.39,0,*47
1502114602.24,65217,21.56,74386.3,14.13,-1.01,-2.03,0,*4C
1502114603.43,65218,21.56,74382.0,14.13,-0.77,-1.67,0,*72
1502114604.63,65219,21.56,74384.0,14.11,-0.57,-1.55,0,*72
1502114605.87,65220,21.56,74382.3,14.05,1.33,0.47,0,*7C
1502114607.09,65221,21.56,74382.8,14.09,0.63,-0.23,0,*6A
1502114608.31,65222,21.56,74382.8,14.09,1.17,0.33,0,*77
1502114609.52,65223,21.56,74380.8,14.05,2.17,0.97,0,*77
1502114610.72,65224,21.56,74382.8,14.05,1.83,0.37,0,*74
1502114611.93,65225,21.56,74382.0,14.03,-0.81,-2.39,0,*7C
1502114613.15,65226,21.56,74380.3,14.01,-1.35,-2.95,0,*45
1502114614.38,65227,21.56,74382.3,13.99,0.29,-1.29,0,*57
1502114615.58,65228,21.56,74382.8,13.99,0.05,-1.55,0,*6D
1502114616.85,65229,21.5,74382.3,13.95,-1.83,-3.47,0,*43
1502114618.1,65230,21.56,74382.0,13.91,-1.39,-3.07,0,*4A
1502114619.34,65231,21.56,74382.3,13.91,-0.97,-2.79,0,*76
1502114620.57,65232,21.56,74380.3,13.91,-2.15,-3.67,0,*43
1502114621.78,65233,21.56,74384.8,13.87,-2.59,-3.91,0,*44
1502114623.02,65234,21.56,74382.8,13.81,-2.19,-3.47,0,*4A
1502114624.23,65235,21.56,74380.3,13.79,-2.59,-3.83,0,*40
1502114625.47,65236,21.56,74382.8,13.73,-2.23,-3.63,0,*4A
1502114626.75,65237,21.56,74380.0,13.73,-1.05,-1.91,0,*43
1502114627.97,65238,21.56,74380.5,13.71,-1.05,-1.63,0,*43
1502114629.16,65239,21.56,74380.3,13.69,0.43,0.05,0,*79
1502114630.4,65240,21.56,74378.3,13.69,-0.23,-0.57,0,*46
1502114631.61,65241,21.56,74382.3,13.69,-0.29,-0.57,0,*4D
1502114632.84,65242,21.56,74380.3,13.67,1.51,1.09,0,*44
1502114634.05,65243,21.56,74380.0,13.67,2.31,1.59,0,*45
1502114635.28,65244,21.56,74378.0,13.69,3.53,2.61,0,*41
1502114636.46,65245,21.56,74378.8,13.71,4.23,2.99,0,*4E
1502114637.67,65246,21.56,74380.0,13.73,4.57,2.99,0,*4C
1502114638.86,65247,21.56,74380.0,13.75,3.63,1.83,0,*43
1502114640.06,65248,21.56,74384.0,13.75,2.35,0.63,0,*71
1502114641.24,65249,21.56,74380.0,13.75,0.01,-1.59,0,*60
1502114642.46,65250,21.56,74382.8,13.75,-0.69,-2.51,0,*70
1502114643.68,65251,21.56,74384.5,13.69,-1.29,-3.19,0,*44
1502114644.92,65252,21.56,74386.0,13.69,-0.97,-2.83,0,*71
1502114646.12,65253,21.56,74382.0,13.67,-0.69,-2.23,0,*75
1502114647.36,65254,21.56,74384.8,13.65,-0.29,-1.47,0,*75
1502114648.57,65255,21.56,74380.5,13.65,-0.49,-1.59,0,*7D
1502114649.76,65256,21.56,74382.0,13.59,-0.77,-1.75,0,*72
1502114650.97,65257,21.56,74380.8,13.59,-0.03,-1.01,0,*43
1502114652.2,65258,21.56,74382.8,13.57,0.25,-0.61,0,*6C
1502114653.43,65259,21.56,74384.0,13.57,0.25,-0.73,0,*6E
1502114654.63,65260,21.56,74380.5,13.53,0.25,-0.73,0,*60
1502114655.82,65261,21.56,74380.8,13.53,-0.15,-1.25,0,*7D
1502114657.03,65262,21.56,74382.5,13.51,-0.37,-1.51,0,*7F
1502114658.19,65263,21.56,74382.8,13.49,0.43,-0.69,0,*63
1502114659.42,65264,21.56,74382.5,13.47,0.41,-0.69,0,*68
1502114660.65,65265,21.56,74382.3,13.47,0.91,-0.29,0,*60
1502114661.87,65266,21.56,74382.0,13.45,1.67,0.41,0,*7A
1502114663.09,65267,21.56,74384.0,13.45,2.77,1.47,0,*4E
1502114664.34,65268,21.56,74384.5,13.47,3.03,1.71,0,*44
1502114665.56,65269,21.56,74382.3,13.49,2.89,1.63,0,*4B
1502114666.74,65270,21.56,74382.3,13.49,2.61,1.41,0,*45
1502114667.94,65271,21.56,74380.5,13.49,2.13,1.01,0,*45
1502114669.16,65272,21.56,74380.3,13.49,2.85,1.67,0,*49
1502114670.38,65273,21.56,74382.5,13.53,2.73,1.47,0,*48
1502114671.61,65274,21.56,74380.5,13.53,1.71,0.51,0,*78
1502114672.85,65275,21.56,74382.0,13.51,2.05,0.95,0,*73
1502114674.05,65276,21.56,74384.5,13.53,1.83,0.71,0,*75
1502114675.29,65277,21.56,74382.8,13.53,1.55,0.21,0,*7A
1502114676.5,65278,21.56,74382.8,13.51,1.01,-0.19,0,*50
1502114677.75,65279,21.56,74378.8,13.51,1.43,0.47,0,*71
1502114678.98,65280,21.56,74380.5,13.49,1.85,0.59,0,*7B
1502114680.2,65281,21.56,74382.0,13.53,3.49,2.21,0,*4E
1502114681.44,65282,21.56,74380.5,13.53,4.05,2.73,0,*45
1502114682.67,65283,21.56,74386.8,13.55,2.81,1.01,0,*4E
1502114683.92,65284,21.56,74382.8,13.55,1.97,0.55,0,*7D
1502114685.16,65285,21.56,74386.3,13.55,2.65,1.13,0,*41
1502114686.41,65286,21.56,74384.5,13.55,2.69,1.25,0,*4B
1502114687.65,65287,21.56,74382.5,13.57,2.21,0.67,0,*73
1502114688.91,65288,21.56,74384.8,13.57,1.71,0.17,0,*7D
1502114690.11,65289,21.56,74382.3,13.57,1.75,0.01,0,*4F
1502114691.37,65290,21.56,74386.5,13.57,0.79,-0.93,0,*6C
1502114692.63,65291,21.56,74382.5,13.57,0.25,-1.43,0,*58
1502114693.88,65292,21.56,74384.8,13.57,0.41,-1.13,0,*5C
1502114695.11,65293,21.56,74386.5,13.55,0.17,-1.71,0,*58
1502114696.36,65294,21.56,74386.3,13.55,0.25,-1.95,0,*54
1502114697.57,65295,21.56,74382.0,13.55,-0.19,-2.19,0,*70
1502114698.81,65296,21.56,74384.3,13.55,-0.85,-2.87,0,*71
1502114700.04,65297,21.56,74384.8,13.55,-1.79,-3.59,0,*40
1502114701.26,65298,21.56,74384.5,13.53,-3.03,-4.77,0,*4D
1502114702.48,65299,21.56,74384.5,13.51,-2.91,-4.57,0,*46
1502114703.69,65300,21.56,74384.8,13.51,-2.39,-3.91,0,*48
1502114704.9,65301,21.56,74384.0,13.47,-2.31,-3.95,0,*42
1502114706.15,65302,21.56,74386.0,13.47,-2.71,-4.37,0,*4A
1502114707.39,65303,21.56,74382.5,13.43,-2.51,-4.37,0,*4D
1502114708.6,65304,21.56,74386.3,13.43,-2.23,-3.79,0,*42
1502114709.82,65305,21.56,74382.8,13.41,-3.07,-4.85,0,*42
1502114711.01,65306,21.56,74386.3,13.37,-2.79,-4.49,0,*48
1502114712.23,65307,21.56,74382.8,13.37,-3.71,-5.35,0,*4A
1502114713.46,65308,21.56,74386.3,13.33,-3.75,-5.27,0,*46
1502114714.72,65309,21.56,74384.8,13.31,-3.39,-5.03,0,*4B
1502114715.91,65310,21.56,74386.5,13.29,-3.07,-4.45,0,*44
1502114717.15,65311,21.56,74382.3,13.27,-2.71,-4.25,0,*4D
1502114718.38,65312,21.56,74382.5,13.27,-1.09,-2.43,0,*44
1502114719.63,65313,21.56,74386.5,13.27,-1.29,-2.71,0,*46
1502114720.85,65314,21.56,74386.8,13.25,-2.59,-4.05,0,*42
1502114722.04,65315,21.56,74384.3,13.25,-3.07,-4.25,0,*4B
1502114723.26,65316,21.56,74386.3,13.23,-2.83,-4.01,0,*45
1502114724.47,65317,21.56,74386.8,13.21,-2.23,-3.39,0,*40
1502114725.71,65318,21.56,74384.3,13.17,-2.47,-3.79,0,*4C
1502114726.96,65319,21.56,74386.3,13.17,-2.47,-3.83,0,*48
1502114728.2,65320,21.56,74384.3,13.17,-1.83,-3.07,0,*45
1502114729.42,65321,21.56,74382.5,13.13,-1.59,-2.95,0,*4D
1502114730.66,65322,21.56,74380.3,13.11,-1.43,-2.71,0,*4D
1502114731.88,65323,21.56,74384.3,13.11,-1.25,-2.59,0,*46
1502114733.1,65324,21.56,74384.3,13.11,-1.01,-2.31,0,*49
1502114734.32,65325,21.56,74386.3,13.11,-0.45,-1.83,0,*73
1502114735.5,65326,21.56,74382.8,13.11,-0.03,-1.75,0,*4B
1502114736.78,65327,21.56,74384.8,13.09,-0.85,-2.51,0,*78
1502114738.02,65328,21.56,74380.8,13.07,-0.89,-2.71,0,*77
1502114739.25,65329,21.56,74384.5,13.09,-1.17,-3.11,0,*49
1502114740.46,65330,21.56,74384.8,13.09,-1.63,-3.23,0,*43
1502114741.65,65331,21.56,74386.3,13.07,-1.71,-3.15,0,*4A
1502114742.85,65332,21.56,74382.8,13.07,-1.79,-2.95,0,*48
1502114744.11,65333,21.56,74386.0,13.05,-1.33,-2.67,0,*48
1502114745.32,65334,21.56,74386.8,13.05,-0.33,-1.63,0,*79
1502114746.54,65335,21.56,74382.5,13.05,-0.81,-2.27,0,*72
1502114747.79,65336,21.56,74386.3,13.05,-0.89,-2.19,0,*74
1502114749.0,65337,21.56,74384.5,13.03,-0.97,-2.19,0,*7C
1502114750.23,65338,21.56,74386.8,13.05,-0.41,-1.63,0,*70
1502114751.45,65339,21.56,74380.5,13.03,-1.43,-2.87,0,*4D
1502114752.67,65340,21.56,74382.8,13.03,-1.87,-2.95,0,*48
1502114753.9,65341,21.56,74382.8,13.01,-1.17,-1.79,0,*43
1502114755.11,65342,21.56,74380.5,13.01,-0.15,-0.65,0,*4F
1502114756.29,65343,21.56,74386.3,13.03,-0.07,-0.45,0,*7D
1502114757.5,65344,21.56,74384.8,13.03,1.01,0.51,0,*78
1502114758.72,65345,21.56,74380.5,13.03,2.65,2.17,0,*48
1502114759.99,65346,21.56,74382.8,13.05,3.75,3.33,0,*4A
1502114761.23,65347,21.56,74380.8,13.09,4.27,3.71,0,*41
1502114762.44,65348,21.56,74384.8,13.11,4.11,3.37,0,*40
1502114763.69,65349,21.56,74382.8,13.13,3.53,2.77,0,*47
1502114764.91,65350,21.56,74384.8,13.17,4.49,3.67,0,*47
1502114766.12,65351,21.56,74380.5,13.19,4.67,3.93,0,*4F
1502114767.32,65352,21.56,74384.5,13.23,4.93,4.23,0,*42
1502114768.54,65353,21.56,74380.5,13.25,5.05,4.41,0,*4F
1502114769.74,65354,21.56,74384.0,13.27,5.07,4.49,0,*40
1502114770.95,65355,21.56,74382.5,13.31,5.71,5.23,0,*4A
1502114772.15,65356,21.56,74384.3,13.33,5.27,4.81,0,*41
1502114773.37,65357,21.56,74384.0,13.35,5.85,5.41,0,*43
1502114774.63,65358,21.56,74382.5,13.35,6.47,6.17,0,*41
1502114775.86,65359,21.56,74384.8,13.43,6.39,5.95,0,*41
1502114777.06,65360,21.56,74386.0,13.45,5.85,5.45,0,*44
1502114778.28,65361,21.56,74380.5,13.45,5.93,5.67,0,*42
1502114779.48,65362,21.56,74382.8,13.49,6.61,6.25,0,*46
1502114780.72,65363,21.56,74384.0,13.53,6.39,5.85,0,*48
1502114781.91,65364,21.56,74382.8,13.53,6.11,5.67,0,*49
1502114783.14,65365,21.56,74384.5,13.53,6.39,5.93,0,*49
1502114784.4,65366,21.56,74382.3,13.57,6.39,5.89,0,*45
1502114785.67,65367,21.56,74386.0,13.65,6.47,5.93,0,*47
1502114786.89,65368,21.56,74384.3,13.63,6.03,5.55,0,*44
1502114788.13,65369,21.56,74380.8,13.63,6.35,5.81,0,*49
1502114789.36,65370,21.56,74384.8,13.65,6.61,6.07,0,*4B
1502114790.58,65371,21.56,74384.3,13.67,6.65,5.95,0,*44
1502114791.77,65372,21.56,74386.8,13.71,6.03,5.41,0,*49
1502114793.0,65373,21.56,74386.3,13.73,4.67,3.85,0,*44
1502114794.2,65374,21.56,74384.5,13.71,4.97,4.27,0,*41
1502114795.4,65375,21.56,74384.3,13.71,3.19,2.35,0,*44
1502114796.66,65376,21.56,74382.8,13.69,2.59,1.67,0,*4F
1502114797.88,65377,21.56,74388.3,13.67,3.67,2.95,0,*42
1502114799.07,65378,21.56,74386.5,13.67,4.07,3.29,0,*4A
1502114800.28,65379,21.56,74386.8,13.67,3.79,2.95,0,*43
1502114801.49,65380,21.56,74386.3,13.67,4.57,3.75,0,*41
1502114802.7,65381,21.56,74386.3,13.69,5.19,4.23,0,*41
1502114803.88,65382,21.56,74386.5,13.71,5.07,4.15,0,*41
1502114805.09,65383,21.56,74386.0,13.71,4.53,3.45,0,*42
1502114806.27,65384,21.56,74386.3,13.71,2.27,1.05,0,*46
1502114807.5,65385,21.56,74384.0,13.71,1.85,0.71,0,*7E
1502114808.74,65386,21.56,74386.0,13.69,0.67,-0.23,0,*63
1502114810.01,65387,21.56,74386.5,13.69,1.13,0.51,0,*78
1502114811.24,65388,21.56,74386.0,13.69,1.79,1.25,0,*49
1502114812.5,65389,21.56,74386.5,13.69,1.97,1.29,0,*44
1502114813.76,65390,21.56,74384.3,13.69,2.01,1.43,0,*4C
1502114815.01,65391,21.56,74382.5,13.69,2.01,1.43,0,*4D
1502114816.27,65392,21.56,74382.5,13.69,1.37,0.95,0,*72
1502114817.5,65393,21.56,74386.3,13.71,2.13,1.97,0,*4C
1502114818.7,65394,21.56,74386.3,13.71,3.23,2.91,0,*4C
1502114819.9,65395,21.56,74386.8,13.71,3.53,2.99,0,*42
1502114821.15,65396,21.56,74386.3,13.73,2.61,2.17,0,*45
1502114822.41,65397,21.56,74386.3,13.73,1.21,0.95,0,*7B
1502114823.61,65398,21.56,74386.8,13.73,0.97,0.97,0,*4A
1502114824.84,65399,21.56,74386.8,13.71,1.55,1.67,0,*48
1502114826.1,65400,21.56,74386.3,13.73,2.85,2.85,0,*4C
1502114827.31,65401,21.56,74388.5,13.71,2.51,2.27,0,*4E
1502114828.49,65402,21.56,74386.3,13.71,2.61,2.35,0,*4D
1502114829.72,65403,21.56,74386.3,13.69,3.33,2.95,0,*49
1502114830.92,65404,21.56,74386.8,13.71,3.93,3.53,0,*46
1502114832.15,65405,21.56,74386.5,13.71,4.01,3.45,0,*4C
1502114833.39,65406,21.56,74386.5,13.73,3.33,2.61,0,*4C
1502114834.66,65407,21.56,74384.0,13.73,3.15,2.55,0,*4E
1502114835.92,65408,21.56,74382.5,13.73,3.19,2.59,0,*41
1502114837.16,65409,21.63,74386.0,13.73,3.85,3.23,0,*49
1502114838.36,65410,21.63,74384.3,13.75,4.41,3.79,0,*47
1502114839.63,65411,21.56,74386.8,13.77,4.31,3.71,0,*4B
1502114840.86,65412,21.56,74382.0,13.77,4.31,3.63,0,*4B
1502114842.08,65413,21.56,74382.0,13.79,4.71,3.93,0,*4F
1502114843.28,65414,21.56,74386.0,13.79,4.49,3.67,0,*48
1502114844.49,65415,21.56,74384.3,13.81,4.27,3.55,0,*47
1502114845.75,65416,21.56,74386.3,13.85,3.45,2.55,0,*42
1502114846.98,65417,21.56,74386.3,13.85,1.09,0.43,0,*7C
1502114848.24,65418,21.56,74386.0,13.81,1.13,0.79,0,*75
1502114849.47,65419,21.56,74384.3,13.81,-0.07,-0.23,0,*7F
1502114850.71,65420,21.56,74386.5,13.77,0.37,0.13,0,*4C
1502114851.94,65421,21.56,74386.3,13.73,0.33,-0.19,0,*6A
1502114853.17,65422,21.56,74380.8,13.71,1.13,0.67,0,*7C
1502114854.4,65423,21.56,74384.5,13.69,1.63,1.05,0,*46
1502114855.67,65424,21.56,74384.5,13.65,1.29,0.63,0,*72
1502114856.9,65425,21.56,74386.8,13.65,2.89,2.27,0,*48
1502114858.11,65426,21.56,74384.3,13.65,1.79,1.05,0,*44
1502114859.31,65427,21.56,74384.3,13.63,1.83,1.17,0,*45
1502114860.52,65428,21.56,74386.8,13.63,1.83,1.09,0,*45
1502114861.73,65429,21.56,74386.0,13.59,1.85,1.05,0,*47
1502114862.96,65430,21.56,74384.3,13.59,2.09,1.29,0,*46
1502114864.23,65431,21.56,74386.3,13.57,2.43,1.85,0,*41
1502114865.46,65432,21.63,74384.3,13.57,1.71,0.97,0,*72
1502114866.71,65433,21.56,74386.0,13.55,1.63,0.75,0,*7E
1502114867.96,65434,21.63,74386.5,13.55,2.85,2.21,0,*41
1502114869.19,65435,21.63,74386.5,13.55,4.07,3.37,0,*4A
1502114870.42,65436,21.63,74386.0,13.55,4.31,3.55,0,*48
1502114871.66,65437,21.56,74384.3,13.57,4.71,4.19,0,*40
1502114872.9,65438,21.56,74384.8,13.57,4.67,4.07,0,*47
1502114874.11,65439,21.56,74384.0,13.63,3.85,3.11,0,*4A
1502114875.34,65440,21.56,74386.5,13.63,2.77,2.17,0,*4F
1502114876.55,65441,21.56,74384.0,13.63,2.27,1.67,0,*4F
1502114877.73,65442,21.63,74390.5,13.63,2.91,2.31,0,*41
1502114878.91,65443,21.56,74386.0,13.63,3.59,2.99,0,*47
1502114880.12,65444,21.63,74390.0,13.59,2.95,2.59,0,*44
1502114881.35,65445,21.56,74384.3,13.59,2.51,1.97,0,*4C
1502114882.58,65446,21.56,74386.8,13.59,1.97,1.43,0,*4F
1502114883.81,65447,21.56,74384.8,13.57,1.71,1.01,0,*4E
1502114885.06,65448,21.56,74384.5,13.51,1.63,0.95,0,*78
1502114886.28,65449,21.56,74384.8,13.53,1.43,0.79,0,*7B
1502114887.49,65450,21.56,74386.8,13.49,1.85,1.05,0,*48
1502114888.75,65451,21.56,74384.3,13.47,1.37,0.63,0,*7F
1502114890.0,65452,21.56,74384.8,13.43,1.13,0.37,0,*7F
1502114891.24,65453,21.56,74386.8,13.37,1.29,0.51,0,*74
1502114892.49,65454,21.56,74384.3,13.35,1.85,1.17,0,*44
1502114893.72,65455,21.56,74380.8,13.33,2.51,1.97,0,*41
1502114894.93,65456,21.63,74384.3,13.33,2.91,2.43,0,*44
1502114896.15,65457,21.56,74384.0,13.35,3.53,2.95,0,*47
1502114897.41,65458,21.56,74382.5,13.31,3.03,2.55,0,*45
1502114898.65,65459,21.63,74386.8,13.29,3.37,2.89,0,*4B
1502114899.85,65460,21.56,74382.8,13.29,3.55,3.19,0,*4D
1502114901.03,65461,21.56,74382.5,13.29,2.65,2.27,0,*42
1502114902.25,65462,21.63,74380.5,13.27,2.35,2.01,0,*4E
1502114903.51,65463,21.56,74382.8,13.27,3.45,3.15,0,*4D
1502114904.74,65464,21.63,74380.0,13.25,3.53,3.15,0,*4F
1502114906.01,65465,21.63,74380.8,13.27,3.15,2.81,0,*42
1502114907.2,65466,21.63,74380.3,13.25,4.07,3.81,0,*46
1502114908.4,65467,21.63,74382.5,13.25,5.51,5.33,0,*4A
1502114909.6,65468,21.56,74380.0,13.27,5.67,5.41,0,*47
1502114910.84,65469,21.56,74380.3,13.27,5.05,4.57,0,*44
1502114912.05,65470,21.63,74380.8,13.29,5.33,4.97,0,*4B
1502114913.31,65471,21.56,74376.0,13.31,5.27,5.01,0,*48
1502114914.53,65472,21.56,74378.8,13.31,5.59,5.23,0,*42
1502114915.76,65473,21.56,74378.3,13.31,5.11,4.67,0,*4E
1502114917.0,65474,21.63,74382.5,13.31,5.59,5.05,0,*40
1502114918.2,65475,21.56,74382.3,13.35,6.07,5.63,0,*4D
1502114919.39,65476,21.63,74384.8,13.37,5.95,5.59,0,*4D
1502114920.6,65477,21.63,74382.3,13.37,5.19,4.67,0,*44
1502114921.81,65478,21.56,74378.5,13.41,4.93,4.45,0,*49
1502114923.01,65479,21.63,74384.3,13.37,4.33,3.67,0,*44